EW5146 Weather Reports


time (UTC)temp
C
wind
direction
speed
KPH
gust
KPH
rain 1hr
cm
rain 24hr
cm
rain mn
cm
humidity
%
barometer
mb
20260503185048 15 202 0.0 14.5 0.00 0.00 0.00 44 1015.7
20260503184620 15 344 1.6 14.5 0.00 0.00 0.00 44 1015.7
20260503184048 15 301 1.6 12.9 0.00 0.00 0.00 41 1015.9
20260503183549 15 282 3.2 12.9 0.00 0.00 0.00 40 1016.0
20260503183100 15 301 4.8 11.3 0.00 0.00 0.00 39 1015.9
20260503182547 15 284 1.6 9.7 0.00 0.00 0.00 41 1016.1
20260503182048 15 258 3.2 11.3 0.00 0.00 0.00 40 1016.1
20260503181610 16 198 3.2 12.9 0.00 0.00 0.00 38 1016.1
20260503181049 16 213 4.8 12.9 0.00 0.00 0.00 38 1016.3
20260503180547 16 332 1.6 8.0 0.00 0.00 0.00 43 1016.1
20260503180112 16 286 3.2 11.3 0.00 0.00 0.00 43 1016.2
20260503175548 16 0 1.6 12.9 0.00 0.00 0.00 38 1016.3
20260503175048 15 261 4.8 12.9 0.00 0.00 0.00 41 1016.4
20260503174556 15 248 3.2 12.9 0.00 0.00 0.00 39 1016.4
20260503174048 15 309 0.0 12.9 0.00 0.00 0.00 41 1016.5
20260503173548 15 0 3.2 12.9 0.00 0.00 0.00 41 1016.6
20260503173103 15 327 3.2 11.3 0.00 0.00 0.00 42 1016.6
20260503172551 15 249 1.6 8.0 0.00 0.00 0.00 44 1016.7
20260503172049 15 327 1.6 12.9 0.00 0.00 0.00 40 1016.9
20260503171555 15 202 3.2 12.9 0.00 0.00 0.00 44 1016.9
20260503171048 15 329 3.2 12.9 0.00 0.00 0.00 41 1017.2
20260503170549 15 0 1.6 12.9 0.00 0.00 0.00 39 1017.2
20260503150549 12 212 3.2 11.3 0.00 0.00 0.00 50 1018.4
20260503150103 12 338 1.6 11.3 0.00 0.00 0.00 51 1018.5
20260503131049 7 183 0.0 12.9 0.00 0.00 0.00 73 1018.7
20260503130554 6 172 3.2 12.9 0.00 0.00 0.00 72 1018.7
20260503110549 1 0 0.0 1.6 0.00 0.00 0.00 92 1017.9
20260503081553 0 0 0.0 0.0 0.00 0.00 0.00 91 1017.4
20260503081050 0 0 0.0 0.0 0.00 0.00 0.00 91 1017.4
20260503080549 0 0 0.0 0.0 0.00 0.00 0.00 91 1017.4
20260503072551 1 0 0.0 0.0 0.00 0.00 0.00 90 1017.2
20260503072048 1 0 0.0 0.0 0.00 0.00 0.00 89 1017.2
20260503071600 1 0 0.0 0.0 0.00 0.00 0.00 89 1017.2
20260503071052 1 0 0.0 0.0 0.00 0.00 0.00 89 1017.2
20260503070549 1 0 0.0 0.0 0.00 0.00 0.00 89 1017.3
20260503070104 1 0 0.0 0.0 0.00 0.00 0.00 89 1017.3
20260503055051 1 0 0.0 0.0 0.00 0.00 0.00 87 1017.5
20260503054600 1 0 0.0 0.0 0.00 0.00 0.00 87 1017.7
20260503054049 1 0 0.0 1.6 0.00 0.00 0.00 87 1017.6
20260503053549 1 0 0.0 1.6 0.00 0.00 0.00 87 1017.6
20260503053053 1 80 0.0 1.6 0.00 0.00 0.00 87 1017.5
20260503052549 1 0 0.0 0.0 0.00 0.00 0.00 86 1017.5
20260503052048 1 0 0.0 0.0 0.00 0.00 0.00 86 1017.4
20260503051558 1 0 0.0 0.0 0.00 0.00 0.00 86 1017.5
20260503051049 2 0 0.0 0.0 0.00 0.00 0.00 86 1017.6
20260503050550 2 0 0.0 0.0 0.00 0.00 0.00 85 1017.5
20260503050056 2 0 0.0 0.0 0.00 0.00 0.00 85 1017.5
20260503045548 2 0 0.0 0.0 0.00 0.00 0.00 85 1017.5
20260503045046 2 0 0.0 0.0 0.00 0.00 0.00 85 1017.5
20260503044607 2 0 0.0 0.0 0.00 0.00 0.00 85 1017.5
20260503044049 2 0 0.0 0.0 0.00 0.00 0.00 85 1017.6
20260503043549 2 0 0.0 0.0 0.00 0.00 0.00 84 1017.6
20260503043101 2 0 0.0 0.0 0.00 0.00 0.00 84 1017.7
20260503042549 2 0 0.0 0.0 0.00 0.00 0.00 84 1017.7
20260503042049 2 0 0.0 0.0 0.00 0.00 0.00 83 1017.6
20260503041601 2 0 0.0 0.0 0.00 0.00 0.00 83 1017.5
20260503041048 2 0 0.0 0.0 0.00 0.00 0.00 83 1017.6
20260503040551 2 0 0.0 0.0 0.00 0.00 0.00 82 1017.7
20260503040108 2 0 0.0 0.0 0.00 0.00 0.00 82 1017.7
20260503035551 2 0 0.0 0.0 0.00 0.00 0.00 82 1017.6
20260503035050 2 0 0.0 0.0 0.00 0.00 0.00 81 1017.5
20260503034605 3 0 0.0 0.0 0.00 0.00 0.00 81 1017.5
20260503034049 3 0 0.0 0.0 0.00 0.00 0.00 81 1017.6
20260503033553 3 0 0.0 0.0 0.00 0.00 0.00 80 1017.6
20260503033057 3 0 0.0 0.0 0.00 0.00 0.00 80 1017.5
20260503032550 3 0 0.0 0.0 0.00 0.00 0.00 80 1017.6
20260503032050 3 0 0.0 0.0 0.00 0.00 0.00 79 1017.6
20260503031557 3 0 0.0 0.0 0.00 0.00 0.00 79 1017.5
20260503031050 3 0 0.0 0.0 0.00 0.00 0.00 78 1017.7
20260503030548 3 0 0.0 0.0 0.00 0.00 0.00 78 1017.6
20260503030127 3 0 0.0 0.0 0.00 0.00 0.00 77 1017.6
20260503025549 4 0 0.0 0.0 0.00 0.00 0.00 76 1017.5
20260503025053 4 0 0.0 0.0 0.00 0.00 0.00 76 1017.6
20260503024557 4 0 0.0 0.0 0.00 0.00 0.00 76 1017.6
20260503024050 4 0 0.0 0.0 0.00 0.00 0.00 75 1017.7
20260503023553 5 0 0.0 0.0 0.00 0.00 0.00 75 1017.6
20260503023054 5 0 0.0 0.0 0.00 0.00 0.00 74 1017.7
20260503022548 5 0 0.0 0.0 0.00 0.00 0.00 73 1017.6
20260503022049 5 0 0.0 1.6 0.00 0.00 0.00 72 1017.5
20260503021602 5 0 0.0 1.6 0.00 0.00 0.00 71 1017.6
20260503021047 5 0 0.0 0.0 0.00 0.00 0.00 70 1017.6
20260503020548 5 0 0.0 1.6 0.00 0.00 0.00 70 1017.5
20260503020055 6 0 0.0 1.6 0.00 0.00 0.00 68 1017.4
20260503015550 6 0 0.0 1.6 0.00 0.00 0.00 67 1017.4
20260503015050 6 0 0.0 0.0 0.00 0.00 0.00 66 1017.4
20260503014604 6 0 0.0 0.0 0.00 0.00 0.00 65 1017.2
20260503014050 6 0 0.0 0.0 0.00 0.00 0.00 65 1017.3
20260503013547 7 0 0.0 0.0 0.00 0.00 0.00 64 1017.1
20260503013052 7 0 0.0 0.0 0.00 0.00 0.00 62 1017.1
20260503012550 7 0 0.0 0.0 0.00 0.00 0.00 62 1017.0
20260503012049 7 0 0.0 0.0 0.00 0.00 0.00 60 1017.0
20260503011558 7 0 0.0 0.0 0.00 0.00 0.00 59 1017.0
20260503011049 8 0 0.0 1.6 0.00 0.00 0.00 57 1016.9
20260503010549 8 0 0.0 1.6 0.00 0.00 0.00 56 1016.9
20260503010106 8 0 0.0 4.8 0.00 0.00 0.00 55 1016.9
20260503005552 8 0 0.0 4.8 0.00 0.00 0.00 55 1016.9
20260503005049 8 0 0.0 4.8 0.00 0.00 0.00 54 1016.9
20260503004554 8 106 0.0 3.2 0.00 0.00 0.00 53 1016.8
20260503004048 8 0 0.0 4.8 0.00 0.00 0.00 53 1016.7
20260503003548 8 0 0.0 4.8 0.00 0.00 0.00 53 1016.7
20260503003118 8 203 0.0 8.0 0.00 0.00 0.00 52 1016.6
20260503002548 9 105 0.0 8.0 0.00 0.00 0.00 53 1016.6
20260503002049 9 87 1.6 8.0 0.00 0.00 0.00 52 1016.6
20260503001553 9 82 0.0 4.8 0.00 0.00 0.00 52 1016.5
20260503001051 10 0 0.0 8.0 0.00 0.00 0.00 52 1016.4
20260503000549 10 78 1.6 8.0 0.00 0.00 0.00 50 1016.3
20260503000056 10 175 1.6 6.4 0.00 0.00 0.00 50 1016.3
20260502235552 10 148 0.0 6.4 0.00 0.00 0.00 51 1016.3
20260502235048 10 93 0.0 9.7 0.00 0.00 0.00 51 1016.3
20260502234551 10 0 1.6 11.3 0.00 0.00 0.00 48 1016.3
20260502234048 10 80 3.2 11.3 0.00 0.00 0.00 48 1016.2
20260502233552 10 62 0.0 6.4 0.00 0.00 0.00 47 1016.1
20260502233050 10 265 1.6 12.9 0.00 0.00 0.00 45 1016.2
20260502232549 11 82 3.2 12.9 0.00 0.00 0.00 44 1016.1
20260502232048 11 160 3.2 12.9 0.00 0.00 0.00 44 1016.0
20260502231605 11 70 3.2 14.5 0.00 0.00 0.00 44 1016.0
20260502231049 11 234 0.0 14.5 0.00 0.00 0.00 46 1016.0
20260502230553 11 69 3.2 11.3 0.00 0.00 0.00 45 1016.0
20260502230050 11 309 3.2 11.3 0.00 0.00 0.00 45 1016.1
20260502225548 11 92 1.6 11.3 0.00 0.00 0.00 45 1016.1
20260502225046 11 81 1.6 9.7 0.00 0.00 0.00 44 1016.1
20260502224555 11 335 1.6 11.3 0.00 0.00 0.00 43 1015.9
20260502224048 11 238 3.2 17.7 0.00 0.00 0.00 43 1016.0
20260502223548 11 130 3.2 17.7 0.00 0.00 0.00 43 1015.8
20260502223053 11 305 3.2 17.7 0.00 0.00 0.00 43 1015.8
20260502222550 12 44 4.8 12.9 0.00 0.00 0.00 43 1015.9
20260502222048 11 216 1.6 9.7 0.00 0.00 0.00 46 1015.8
20260502221552 11 45 1.6 8.0 0.00 0.00 0.00 44 1015.9
20260502221052 11 67 0.0 8.0 0.00 0.00 0.00 45 1015.7
20260502220549 11 277 1.6 9.7 0.00 0.00 0.00 46 1015.9
20260502220058 11 94 1.6 9.7 0.00 0.00 0.00 42 1015.8
20260502215548 11 0 1.6 14.5 0.00 0.00 0.00 44 1015.7
20260502215051 11 88 0.0 14.5 0.00 0.00 0.00 47 1015.6
20260502214602 11 24 3.2 11.3 0.00 0.00 0.00 45 1015.6
20260502214048 11 66 3.2 11.3 0.00 0.00 0.00 43 1015.7
20260502213548 11 94 0.0 8.0 0.00 0.00 0.00 46 1015.5
20260502213057 11 0 3.2 9.7 0.00 0.00 0.00 43 1015.5
20260502212548 11 119 3.2 9.7 0.00 0.00 0.00 44 1015.7
20260502212047 11 0 1.6 6.4 0.00 0.00 0.00 47 1015.4
20260502211555 11 44 1.6 8.0 0.00 0.00 0.00 45 1015.5
20260502211049 11 299 1.6 8.0 0.00 0.00 0.00 46 1015.4
20260502210548 11 66 1.6 8.0 0.00 0.00 0.00 45 1015.6
20260502210056 11 0 1.6 17.7 0.00 0.00 0.00 44 1015.6
20260502205548 11 132 3.2 19.3 0.00 0.00 0.00 47 1015.5
20260502205048 11 228 3.2 19.3 0.00 0.00 0.00 45 1015.5
20260502204609 11 242 3.2 19.3 0.00 0.00 0.00 45 1015.4
20260502204048 11 156 1.6 12.9 0.00 0.00 0.00 45 1015.4
20260502203549 11 284 1.6 12.9 0.00 0.00 0.00 43 1015.6
20260502203113 11 0 1.6 20.9 0.00 0.00 0.00 44 1015.4
20260502202550 11 219 0.0 20.9 0.00 0.00 0.00 48 1015.6
20260502202048 12 319 4.8 20.9 0.00 0.00 0.00 42 1015.6
20260502201554 12 0 3.2 16.1 0.00 0.00 0.00 46 1015.6
20260502201051 12 234 1.6 16.1 0.00 0.00 0.00 43 1015.5
20260502200549 12 80 1.6 9.7 0.00 0.00 0.00 44 1015.5
20260502200052 11 17 1.6 8.0 0.00 0.00 0.00 43 1015.7
20260502195547 11 276 1.6 8.0 0.00 0.00 0.00 45 1015.9
20260502195048 11 255 0.0 12.9 0.00 0.00 0.00 45 1015.9
20260502194559 11 0 1.6 14.5 0.00 0.00 0.00 42 1015.8
20260502194049 12 55 3.2 14.5 0.00 0.00 0.00 42 1016.0
20260502193549 12 255 3.2 12.9 0.00 0.00 0.00 44 1015.7
20260502193054 11 28 3.2 14.5 0.00 0.00 0.00 46 1016.1
20260502192550 11 265 3.2 19.3 0.00 0.00 0.00 47 1016.0
20260502192048 11 304 1.6 19.3 0.00 0.00 0.00 44 1015.9
20260502191559 11 307 1.6 11.3 0.00 0.00 0.00 44 1015.9
20260502191049 11 76 3.2 11.3 0.00 0.00 0.00 43 1016.1
20260502190549 11 88 3.2 11.3 0.00 0.00 0.00 45 1015.9
20260502190057 11 338 4.8 12.9 0.00 0.00 0.00 44 1016.2
20260502185548 11 292 1.6 12.9 0.00 0.00 0.00 45 1016.1